Retour au catalogue

STARLINK-36863

ActifCommunicationsVLEO
NORAD 67949·PAYLOAD·🇺🇸 United States

Lancé Feb 24, 2026 depuis Vandenberg Space Force Base

Loading…

Prochains Passages (prochaines 24 heures)

TLE

FraisSource: CelesTrak SupGP

Époque: Sep 15, 2026, 02:58 UTC

1 67949C 26037T   26258.12409722 -.00042910  00000+0 -15546-2 0  2581
2 67949  43.0029 200.4685 0001277 275.1535 210.4465 15.27590970    13

Suivez STARLINK-36863 en temps réel avec AllMySat

Download on the App Store